| time (UTC) | temp C | wind direction | speed KPH | gust KPH | rain 1hr cm | rain 24hr cm | rain mn cm | humidity % | barometer mb |
| 20260508214518 | 18 | 330 | 11.3 | 11.3 | 0.00 | 0.00 | 0.00 | 56 | 1014.2 |
| 20260508214014 | 18 | 347 | 8.0 | 11.3 | 0.00 | 0.00 | 0.00 | 55 | 1014.0 |
| 20260508213512 | 18 | 338 | 11.3 | 14.5 | 0.00 | 0.00 | 0.00 | 55 | 1014.0 |
| 20260508213007 | 18 | 325 | 12.9 | 12.9 | 0.00 | 0.00 | 0.00 | 55 | 1014.0 |
| 20260508212503 | 18 | 348 | 4.8 | 11.3 | 0.00 | 0.00 | 0.00 | 59 | 1014.0 |
| 20260508211959 | 19 | 328 | 8.0 | 11.3 | 0.00 | 0.00 | 0.00 | 54 | 1014.2 |
| 20260508211455 | 20 | 17 | 11.3 | 12.9 | 0.00 | 0.00 | 0.00 | 51 | 1014.2 |
| 20260508210952 | 19 | 13 | 8.0 | 11.3 | 0.00 | 0.00 | 0.00 | 52 | 1014.4 |
| 20260508210448 | 19 | 62 | 4.8 | 16.1 | 0.00 | 0.00 | 0.00 | 50 | 1014.5 |
| 20260508205945 | 20 | 328 | 11.3 | 12.9 | 0.00 | 0.00 | 0.00 | 53 | 1014.0 |
| 20260508205442 | 20 | 348 | 4.8 | 8.0 | 0.00 | 0.00 | 0.00 | 54 | 1014.0 |
| 20260508204938 | 20 | 20 | 6.4 | 8.0 | 0.00 | 0.00 | 0.00 | 52 | 1014.1 |
| 20260508204436 | 20 | 18 | 4.8 | 9.7 | 0.00 | 0.00 | 0.00 | 53 | 1014.0 |
| 20260508203931 | 20 | 345 | 11.3 | 11.3 | 0.00 | 0.00 | 0.00 | 50 | 1014.4 |
| 20260508203428 | 20 | 339 | 8.0 | 11.3 | 0.00 | 0.00 | 0.00 | 50 | 1014.1 |
| 20260508202923 | 20 | 348 | 8.0 | 9.7 | 0.00 | 0.00 | 0.00 | 57 | 1014.1 |
| 20260508202421 | 20 | 341 | 8.0 | 9.7 | 0.00 | 0.00 | 0.00 | 50 | 1014.2 |
| 20260508201918 | 20 | 9 | 6.4 | 9.7 | 0.00 | 0.00 | 0.00 | 51 | 1014.2 |
| 20260508201414 | 20 | 338 | 9.7 | 9.7 | 0.00 | 0.00 | 0.00 | 47 | 1014.4 |
| 20260508200911 | 20 | 351 | 4.8 | 8.0 | 0.00 | 0.00 | 0.00 | 48 | 1014.6 |
| 20260508200409 | 20 | 356 | 8.0 | 11.3 | 0.00 | 0.00 | 0.00 | 49 | 1014.5 |
| 20260508195903 | 20 | 7 | 8.0 | 11.3 | 0.00 | 0.00 | 0.00 | 45 | 1014.5 |
| 20260508195401 | 20 | 321 | 4.8 | 11.3 | 0.00 | 0.00 | 0.00 | 47 | 1014.6 |
| 20260508194856 | 20 | 5 | 8.0 | 9.7 | 0.00 | 0.00 | 0.00 | 50 | 1014.5 |
| 20260508194354 | 20 | 293 | 4.8 | 9.7 | 0.00 | 0.00 | 0.00 | 48 | 1014.4 |
| 20260508193851 | 20 | 334 | 8.0 | 9.7 | 0.00 | 0.00 | 0.00 | 46 | 1014.6 |
| 20260508193347 | 20 | 51 | 11.3 | 11.3 | 0.00 | 0.00 | 0.00 | 45 | 1014.8 |
| 20260508192843 | 20 | 21 | 4.8 | 8.0 | 0.00 | 0.00 | 0.00 | 48 | 1014.9 |
| 20260508192341 | 20 | 305 | 9.7 | 9.7 | 0.00 | 0.00 | 0.00 | 46 | 1014.9 |
| 20260508191838 | 20 | 325 | 6.4 | 8.0 | 0.00 | 0.00 | 0.00 | 44 | 1015.1 |
| 20260508191335 | 20 | 222 | 0.0 | 8.0 | 0.00 | 0.00 | 0.00 | 45 | 1015.4 |
| 20260508190832 | 20 | 21 | 11.3 | 14.5 | 0.00 | 0.00 | 0.00 | 45 | 1015.5 |
| 20260508190329 | 20 | 23 | 4.8 | 11.3 | 0.00 | 0.00 | 0.00 | 47 | 1015.6 |
| 20260508185825 | 20 | 349 | 8.0 | 11.3 | 0.00 | 0.00 | 0.00 | 44 | 1015.4 |
| 20260508185323 | 20 | 335 | 11.3 | 14.5 | 0.00 | 0.00 | 0.00 | 47 | 1015.6 |
| 20260508184820 | 20 | 12 | 8.0 | 16.1 | 0.00 | 0.00 | 0.00 | 45 | 1015.5 |
| 20260508184317 | 20 | 69 | 8.0 | 9.7 | 0.00 | 0.00 | 0.00 | 44 | 1015.7 |
| 20260508183814 | 19 | 9 | 4.8 | 17.7 | 0.00 | 0.00 | 0.00 | 48 | 1015.7 |
| 20260508183310 | 20 | 28 | 9.7 | 14.5 | 0.00 | 0.00 | 0.00 | 45 | 1015.7 |
| 20260508182806 | 19 | 17 | 8.0 | 11.3 | 0.00 | 0.00 | 0.00 | 50 | 1015.8 |
| 20260508182306 | 19 | 334 | 9.7 | 14.5 | 0.00 | 0.00 | 0.00 | 47 | 1016.1 |
| 20260508181759 | 19 | 351 | 11.3 | 16.1 | 0.00 | 0.00 | 0.00 | 47 | 1015.9 |
| 20260508181256 | 19 | 1 | 6.4 | 20.9 | 0.00 | 0.00 | 0.00 | 44 | 1016.2 |
| 20260508180753 | 19 | 43 | 20.9 | 27.4 | 0.00 | 0.00 | 0.00 | 44 | 1015.9 |
| 20260508180249 | 19 | 37 | 9.7 | 17.7 | 0.00 | 0.00 | 0.00 | 41 | 1016.3 |
| 20260508175746 | 19 | 53 | 14.5 | 14.5 | 0.00 | 0.00 | 0.00 | 44 | 1016.4 |
| 20260508175242 | 20 | 22 | 4.8 | 16.1 | 0.00 | 0.00 | 0.00 | 41 | 1016.3 |
| 20260508174741 | 20 | 8 | 4.8 | 16.1 | 0.00 | 0.00 | 0.00 | 42 | 1016.2 |
| 20260508174238 | 19 | 51 | 11.3 | 11.3 | 0.00 | 0.00 | 0.00 | 48 | 1016.2 |
| 20260508173734 | 19 | 0 | 14.5 | 19.3 | 0.00 | 0.00 | 0.00 | 41 | 1016.6 |
| 20260508173230 | 19 | 285 | 4.8 | 12.9 | 0.00 | 0.00 | 0.00 | 40 | 1016.5 |
| 20260508172727 | 19 | 303 | 8.0 | 11.3 | 0.00 | 0.00 | 0.00 | 46 | 1016.4 |
| 20260508172224 | 19 | 331 | 4.8 | 12.9 | 0.00 | 0.00 | 0.00 | 40 | 1016.5 |
| 20260508171720 | 19 | 264 | 4.8 | 8.0 | 0.00 | 0.00 | 0.00 | 41 | 1016.6 |
| 20260508171216 | 18 | 322 | 8.0 | 9.7 | 0.00 | 0.00 | 0.00 | 42 | 1016.8 |
| 20260508170714 | 18 | 342 | 14.5 | 17.7 | 0.00 | 0.00 | 0.00 | 39 | 1016.9 |
| 20260508170211 | 18 | 4 | 4.8 | 19.3 | 0.00 | 0.00 | 0.00 | 40 | 1016.9 |
| 20260508165708 | 18 | 5 | 9.7 | 12.9 | 0.00 | 0.00 | 0.00 | 39 | 1017.2 |
| 20260508165205 | 18 | 358 | 6.4 | 11.3 | 0.00 | 0.00 | 0.00 | 39 | 1017.2 |
| 20260508164702 | 18 | 77 | 9.7 | 11.3 | 0.00 | 0.00 | 0.00 | 41 | 1017.0 |
| 20260508164158 | 18 | 353 | 4.8 | 11.3 | 0.00 | 0.00 | 0.00 | 40 | 1017.2 |
| 20260508163656 | 17 | 60 | 11.3 | 17.7 | 0.00 | 0.00 | 0.00 | 40 | 1017.4 |
| 20260508163153 | 17 | 27 | 6.4 | 14.5 | 0.00 | 0.00 | 0.00 | 44 | 1017.4 |
| 20260508162648 | 17 | 63 | 14.5 | 17.7 | 0.00 | 0.00 | 0.00 | 44 | 1017.5 |
| 20260508162146 | 17 | 53 | 12.9 | 14.5 | 0.00 | 0.00 | 0.00 | 43 | 1017.7 |
| 20260508161643 | 17 | 55 | 6.4 | 11.3 | 0.00 | 0.00 | 0.00 | 50 | 1017.8 |
| 20260508161141 | 17 | 328 | 4.8 | 11.3 | 0.00 | 0.00 | 0.00 | 65 | 1017.7 |
| 20260508160639 | 16 | 13 | 3.2 | 14.5 | 0.00 | 0.00 | 0.00 | 56 | 1017.7 |
| 20260508160136 | 16 | 57 | 11.3 | 14.5 | 0.00 | 0.00 | 0.00 | 60 | 1018.0 |
| 20260508155633 | 16 | 15 | 6.4 | 14.5 | 0.00 | 0.00 | 0.00 | 58 | 1018.1 |
| 20260508155130 | 16 | 19 | 8.0 | 14.5 | 0.00 | 0.00 | 0.00 | 59 | 1018.1 |
| 20260508154627 | 15 | 93 | 4.8 | 14.5 | 0.00 | 0.00 | 0.00 | 62 | 1018.1 |
| 20260508154123 | 15 | 20 | 6.4 | 11.3 | 0.00 | 0.00 | 0.00 | 63 | 1018.3 |
| 20260508153620 | 15 | 41 | 8.0 | 11.3 | 0.00 | 0.00 | 0.00 | 61 | 1018.2 |
| 20260508153117 | 15 | 356 | 6.4 | 11.3 | 0.00 | 0.00 | 0.00 | 64 | 1018.2 |
| 20260508152614 | 15 | 287 | 3.2 | 4.8 | 0.00 | 0.00 | 0.00 | 71 | 1018.2 |
| 20260508152109 | 14 | 351 | 3.2 | 8.0 | 0.00 | 0.00 | 0.00 | 68 | 1018.5 |
| 20260508151607 | 13 | 345 | 4.8 | 4.8 | 0.00 | 0.00 | 0.00 | 70 | 1018.6 |
| 20260508151103 | 13 | 16 | 4.8 | 8.0 | 0.00 | 0.00 | 0.00 | 71 | 1018.6 |
| 20260508150601 | 13 | 41 | 6.4 | 6.4 | 0.00 | 0.00 | 0.00 | 71 | 1018.7 |
| 20260508150056 | 12 | 5 | 8.0 | 9.7 | 0.00 | 0.00 | 0.00 | 75 | 1018.5 |
| 20260508145553 | 12 | 11 | 4.8 | 11.3 | 0.00 | 0.00 | 0.00 | 74 | 1018.6 |
| 20260508145049 | 12 | 337 | 6.4 | 11.3 | 0.00 | 0.00 | 0.00 | 75 | 1018.5 |
| 20260508144547 | 12 | 22 | 4.8 | 9.7 | 0.00 | 0.00 | 0.00 | 76 | 1018.7 |
| 20260508144044 | 11 | 329 | 8.0 | 9.7 | 0.00 | 0.00 | 0.00 | 81 | 1018.6 |
| 20260508143542 | 11 | 337 | 4.8 | 9.7 | 0.00 | 0.00 | 0.00 | 83 | 1018.7 |
| 20260508143038 | 11 | 330 | 8.0 | 9.7 | 0.00 | 0.00 | 0.00 | 84 | 1018.6 |
| 20260508142535 | 11 | 11 | 4.8 | 8.0 | 0.00 | 0.00 | 0.00 | 86 | 1018.7 |
| 20260508142032 | 10 | 333 | 8.0 | 8.0 | 0.00 | 0.00 | 0.00 | 88 | 1018.8 |
| 20260508141528 | 10 | 43 | 4.8 | 11.3 | 0.00 | 0.00 | 0.00 | 90 | 1018.9 |
| 20260508141026 | 10 | 353 | 4.8 | 8.0 | 0.00 | 0.00 | 0.00 | 93 | 1018.8 |
| 20260508140523 | 9 | 22 | 4.8 | 9.7 | 0.00 | 0.00 | 0.00 | 94 | 1018.9 |
| 20260508140019 | 9 | 15 | 8.0 | 9.7 | 0.00 | 0.00 | 0.00 | 95 | 1019.0 |
| 20260508135515 | 9 | 10 | 6.4 | 9.7 | 0.00 | 0.00 | 0.00 | 96 | 1019.2 |
| 20260508135012 | 8 | 3 | 8.0 | 11.3 | 0.00 | 0.00 | 0.00 | 96 | 1019.1 |
| 20260508134508 | 8 | 359 | 9.7 | 9.7 | 0.00 | 0.00 | 0.00 | 97 | 1019.4 |
| 20260508134005 | 8 | 15 | 6.4 | 8.0 | 0.00 | 0.00 | 0.00 | 97 | 1019.4 |
| 20260508133502 | 8 | 352 | 8.0 | 9.7 | 0.00 | 0.00 | 0.00 | 98 | 1019.1 |
| 20260508132959 | 8 | 346 | 0.0 | 8.0 | 0.00 | 0.00 | 0.00 | 98 | 1019.4 |
| 20260508132457 | 8 | 0 | 4.8 | 8.0 | 0.00 | 0.00 | 0.00 | 99 | 1019.5 |
| 20260508131954 | 7 | 25 | 4.8 | 8.0 | 0.00 | 0.00 | 0.00 | 99 | 1019.4 |
| 20260508131449 | 7 | 343 | 8.0 | 8.0 | 0.00 | 0.00 | 0.00 | 99 | 1019.5 |
| 20260508130946 | 7 | 355 | 4.8 | 8.0 | 0.00 | 0.00 | 0.00 | 99 | 1019.6 |
| 20260508130443 | 7 | 342 | 8.0 | 8.0 | 0.00 | 0.00 | 0.00 | 99 | 1019.5 |
| 20260508125938 | 7 | 27 | 6.4 | 8.0 | 0.00 | 0.00 | 0.00 | 99 | 1019.5 |
| 20260508125435 | 7 | 42 | 8.0 | 9.7 | 0.00 | 0.00 | 0.00 | 99 | 1019.4 |
| 20260508124933 | 7 | 0 | 3.2 | 6.4 | 0.00 | 0.00 | 0.00 | 99 | 1019.2 |
| 20260508124430 | 7 | 5 | 4.8 | 6.4 | 0.00 | 0.00 | 0.00 | 99 | 1019.2 |
| 20260508123928 | 7 | 356 | 6.4 | 8.0 | 0.00 | 0.00 | 0.00 | 99 | 1019.4 |
| 20260508123427 | 6 | 9 | 4.8 | 6.4 | 0.00 | 0.00 | 0.00 | 99 | 1019.5 |
| 20260508122922 | 6 | 339 | 4.8 | 6.4 | 0.00 | 0.00 | 0.00 | 99 | 1019.5 |
| 20260508122420 | 6 | 135 | 0.0 | 0.0 | 0.00 | 0.00 | 0.00 | 99 | 1019.4 |
| 20260508121917 | 6 | 337 | 4.8 | 6.4 | 0.00 | 0.00 | 0.00 | 99 | 1019.2 |
| 20260508121415 | 6 | 345 | 4.8 | 4.8 | 0.00 | 0.00 | 0.00 | 99 | 1019.0 |
| 20260508120912 | 6 | 16 | 6.4 | 6.4 | 0.00 | 0.00 | 0.00 | 99 | 1019.0 |
| 20260508120410 | 6 | 45 | 4.8 | 8.0 | 0.00 | 0.00 | 0.00 | 99 | 1018.9 |
| 20260508115907 | 6 | 25 | 6.4 | 8.0 | 0.00 | 0.00 | 0.00 | 99 | 1018.6 |
| 20260508115405 | 6 | 1 | 0.0 | 6.4 | 0.00 | 0.00 | 0.00 | 99 | 1018.7 |
| 20260508114901 | 6 | 348 | 4.8 | 6.4 | 0.00 | 0.00 | 0.00 | 99 | 1018.7 |
| 20260508114358 | 6 | 358 | 8.0 | 8.0 | 0.00 | 0.00 | 0.00 | 99 | 1018.6 |
| 20260508113855 | 6 | 42 | 8.0 | 8.0 | 0.00 | 0.00 | 0.00 | 99 | 1018.5 |
| 20260508113353 | 6 | 314 | 3.2 | 4.8 | 0.00 | 0.00 | 0.00 | 99 | 1018.5 |
| 20260508112849 | 6 | 309 | 8.0 | 8.0 | 0.00 | 0.00 | 0.00 | 99 | 1018.4 |
| 20260508112347 | 6 | 342 | 3.2 | 4.8 | 0.00 | 0.00 | 0.00 | 99 | 1018.3 |
| 20260508111843 | 6 | 322 | 8.0 | 8.0 | 0.00 | 0.00 | 0.00 | 99 | 1018.2 |
| 20260508111340 | 6 | 332 | 6.4 | 6.4 | 0.00 | 0.00 | 0.00 | 99 | 1018.1 |
| 20260508110837 | 6 | 13 | 4.8 | 8.0 | 0.00 | 0.00 | 0.00 | 99 | 1018.0 |
| 20260508110335 | 6 | 356 | 3.2 | 6.4 | 0.00 | 0.00 | 0.00 | 99 | 1017.9 |
| 20260508105834 | 6 | 338 | 4.8 | 4.8 | 0.00 | 0.00 | 0.00 | 99 | 1017.8 |
| 20260508105331 | 6 | 342 | 0.0 | 6.4 | 0.00 | 0.00 | 0.00 | 99 | 1017.7 |
| 20260508104828 | 6 | 325 | 0.0 | 4.8 | 0.00 | 0.00 | 0.00 | 99 | 1017.7 |
| 20260508104325 | 6 | 340 | 3.2 | 6.4 | 0.00 | 0.00 | 0.00 | 99 | 1017.4 |
| 20260508103822 | 6 | 23 | 4.8 | 4.8 | 0.00 | 0.00 | 0.00 | 99 | 1017.4 |
| 20260508103319 | 6 | 1 | 4.8 | 6.4 | 0.00 | 0.00 | 0.00 | 99 | 1017.3 |
| 20260508102817 | 6 | 0 | 4.8 | 6.4 | 0.00 | 0.00 | 0.00 | 99 | 1017.4 |
| 20260508102315 | 6 | 31 | 3.2 | 4.8 | 0.00 | 0.00 | 0.00 | 99 | 1017.3 |
| 20260508101812 | 6 | 30 | 8.0 | 8.0 | 0.00 | 0.00 | 0.00 | 99 | 1017.1 |
| 20260508101309 | 6 | 0 | 6.4 | 6.4 | 0.00 | 0.00 | 0.00 | 99 | 1017.2 |
| 20260508100807 | 6 | 4 | 3.2 | 4.8 | 0.00 | 0.00 | 0.00 | 99 | 1017.1 |
| 20260508100305 | 6 | 350 | 3.2 | 8.0 | 0.00 | 0.00 | 0.00 | 99 | 1016.9 |
| 20260508095800 | 6 | 333 | 4.8 | 4.8 | 0.00 | 0.00 | 0.00 | 99 | 1017.1 |
| 20260508095258 | 6 | 19 | 4.8 | 4.8 | 0.00 | 0.00 | 0.00 | 99 | 1017.0 |
| 20260508094755 | 6 | 344 | 3.2 | 4.8 | 0.00 | 0.00 | 0.00 | 99 | 1016.7 |
| 20260508094252 | 6 | 329 | 6.4 | 8.0 | 0.00 | 0.00 | 0.00 | 99 | 1016.9 |
| 20260508093749 | 6 | 344 | 4.8 | 4.8 | 0.00 | 0.00 | 0.00 | 99 | 1016.6 |
| 20260508093247 | 6 | 354 | 4.8 | 4.8 | 0.00 | 0.00 | 0.00 | 99 | 1016.6 |
| 20260508092743 | 6 | 334 | 6.4 | 6.4 | 0.00 | 0.00 | 0.00 | 99 | 1016.5 |
| 20260508092241 | 6 | 358 | 3.2 | 4.8 | 0.00 | 0.00 | 0.00 | 99 | 1016.7 |
| 20260508091739 | 6 | 342 | 4.8 | 4.8 | 0.00 | 0.00 | 0.00 | 99 | 1016.5 |
| 20260508091236 | 6 | 339 | 6.4 | 6.4 | 0.00 | 0.00 | 0.00 | 99 | 1016.5 |
| 20260508090734 | 6 | 335 | 4.8 | 4.8 | 0.00 | 0.00 | 0.00 | 99 | 1016.4 |
| 20260508090231 | 6 | 335 | 4.8 | 6.4 | 0.00 | 0.00 | 0.00 | 99 | 1016.5 |
| 20260508085727 | 6 | 20 | 4.8 | 6.4 | 0.00 | 0.00 | 0.00 | 99 | 1016.6 |
| 20260508085224 | 6 | 328 | 4.8 | 4.8 | 0.00 | 0.00 | 0.00 | 99 | 1016.4 |
| 20260508084720 | 6 | 318 | 4.8 | 4.8 | 0.00 | 0.00 | 0.00 | 99 | 1016.5 |
| 20260508084218 | 6 | 347 | 3.2 | 4.8 | 0.00 | 0.00 | 0.00 | 99 | 1016.4 |
| 20260508083715 | 6 | 354 | 4.8 | 8.0 | 0.00 | 0.00 | 0.00 | 99 | 1016.6 |
| 20260508083213 | 6 | 345 | 4.8 | 8.0 | 0.00 | 0.00 | 0.00 | 99 | 1016.4 |
| 20260508082707 | 6 | 336 | 6.4 | 6.4 | 0.00 | 0.00 | 0.00 | 99 | 1016.4 |
| 20260508082205 | 6 | 0 | 6.4 | 6.4 | 0.00 | 0.00 | 0.00 | 99 | 1016.3 |
| 20260508081702 | 6 | 350 | 4.8 | 6.4 | 0.00 | 0.00 | 0.00 | 99 | 1016.5 |
| 20260508081158 | 6 | 334 | 4.8 | 6.4 | 0.00 | 0.00 | 0.00 | 99 | 1016.4 |
| 20260508080656 | 6 | 2 | 4.8 | 8.0 | 0.00 | 0.00 | 0.00 | 99 | 1016.3 |
| 20260508080154 | 7 | 334 | 4.8 | 6.4 | 0.00 | 0.00 | 0.00 | 99 | 1016.2 |
| 20260508075650 | 7 | 347 | 3.2 | 4.8 | 0.00 | 0.00 | 0.00 | 99 | 1016.2 |
| 20260508075147 | 7 | 353 | 4.8 | 8.0 | 0.00 | 0.00 | 0.00 | 99 | 1016.3 |
| 20260508074645 | 7 | 349 | 4.8 | 6.4 | 0.00 | 0.00 | 0.00 | 99 | 1016.2 |
| 20260508074142 | 7 | 3 | 3.2 | 6.4 | 0.00 | 0.00 | 0.00 | 99 | 1016.1 |
| 20260508073639 | 7 | 314 | 8.0 | 8.0 | 0.00 | 0.00 | 0.00 | 99 | 1016.1 |
| 20260508073137 | 7 | 332 | 3.2 | 4.8 | 0.00 | 0.00 | 0.00 | 99 | 1016.1 |
| 20260508072632 | 7 | 13 | 0.0 | 8.0 | 0.00 | 0.00 | 0.00 | 99 | 1015.8 |
| 20260508072130 | 7 | 30 | 3.2 | 4.8 | 0.00 | 0.00 | 0.00 | 99 | 1015.9 |
| 20260508071627 | 7 | 341 | 6.4 | 8.0 | 0.00 | 0.00 | 0.00 | 99 | 1016.2 |
| 20260508071125 | 7 | 353 | 3.2 | 8.0 | 0.00 | 0.00 | 0.00 | 99 | 1016.1 |
| 20260508070622 | 7 | 300 | 0.0 | 11.3 | 0.00 | 0.00 | 0.00 | 99 | 1016.2 |
| 20260508070121 | 7 | 26 | 3.2 | 8.0 | 0.00 | 0.00 | 0.00 | 99 | 1016.4 |
| 20260508065618 | 7 | 30 | 3.2 | 4.8 | 0.00 | 0.00 | 0.00 | 99 | 1016.2 |
| 20260508065115 | 7 | 67 | 3.2 | 4.8 | 0.00 | 0.00 | 0.00 | 99 | 1016.6 |
| 20260508064613 | 7 | 297 | 6.4 | 6.4 | 0.00 | 0.00 | 0.00 | 99 | 1016.3 |
| 20260508064111 | 7 | 328 | 4.8 | 6.4 | 0.00 | 0.00 | 0.00 | 99 | 1016.1 |
| 20260508063608 | 7 | 357 | 6.4 | 8.0 | 0.00 | 0.00 | 0.00 | 99 | 1015.8 |
| 20260508063106 | 7 | 337 | 4.8 | 8.0 | 0.00 | 0.00 | 0.00 | 99 | 1016.1 |
| 20260508062603 | 7 | 348 | 6.4 | 8.0 | 0.00 | 0.00 | 0.00 | 99 | 1015.9 |
| 20260508062100 | 7 | 9 | 4.8 | 8.0 | 0.00 | 0.00 | 0.00 | 99 | 1015.9 |
| 20260508061557 | 7 | 291 | 4.8 | 6.4 | 0.00 | 0.00 | 0.00 | 99 | 1016.2 |
| 20260508061055 | 7 | 291 | 4.8 | 6.4 | 0.00 | 0.00 | 0.00 | 99 | 1016.2 |
| 20260508060551 | 7 | 353 | 0.0 | 4.8 | 0.00 | 0.00 | 0.00 | 99 | 1016.1 |
| 20260508060049 | 7 | 329 | 4.8 | 4.8 | 0.00 | 0.00 | 0.00 | 99 | 1016.2 |
| 20260508055544 | 7 | 12 | 0.0 | 6.4 | 0.00 | 0.00 | 0.00 | 99 | 1016.2 |
| 20260508055041 | 7 | 342 | 4.8 | 6.4 | 0.00 | 0.00 | 0.00 | 99 | 1016.3 |
| 20260508054537 | 7 | 355 | 3.2 | 4.8 | 0.00 | 0.00 | 0.00 | 99 | 1016.3 |
| 20260508054035 | 7 | 329 | 4.8 | 4.8 | 0.00 | 0.00 | 0.00 | 99 | 1016.1 |
| 20260508053531 | 7 | 3 | 4.8 | 8.0 | 0.00 | 0.00 | 0.00 | 99 | 1016.1 |
| 20260508053030 | 7 | 315 | 8.0 | 8.0 | 0.00 | 0.00 | 0.00 | 99 | 1016.1 |
| 20260508052527 | 7 | 6 | 3.2 | 4.8 | 0.00 | 0.00 | 0.00 | 99 | 1016.5 |
| 20260508052023 | 7 | 346 | 3.2 | 6.4 | 0.00 | 0.00 | 0.00 | 99 | 1016.2 |
| 20260508051520 | 7 | 350 | 3.2 | 4.8 | 0.00 | 0.00 | 0.00 | 99 | 1016.3 |
| 20260508051015 | 7 | 12 | 4.8 | 4.8 | 0.00 | 0.00 | 0.00 | 98 | 1016.1 |
| 20260508050512 | 7 | 29 | 3.2 | 4.8 | 0.00 | 0.00 | 0.00 | 98 | 1016.5 |
| 20260508050009 | 7 | 343 | 3.2 | 4.8 | 0.00 | 0.00 | 0.00 | 98 | 1016.3 |
| 20260508045505 | 7 | 330 | 6.4 | 6.4 | 0.00 | 0.00 | 0.00 | 98 | 1016.3 |
| 20260508045003 | 7 | 353 | 3.2 | 6.4 | 0.00 | 0.00 | 0.00 | 98 | 1016.1 |
| 20260508044500 | 7 | 340 | 6.4 | 6.4 | 0.00 | 0.00 | 0.00 | 98 | 1016.2 |
| 20260508043955 | 7 | 322 | 4.8 | 6.4 | 0.00 | 0.00 | 0.00 | 98 | 1016.1 |
| 20260508043453 | 7 | 333 | 4.8 | 6.4 | 0.00 | 0.00 | 0.00 | 98 | 1015.9 |
| 20260508042949 | 7 | 349 | 4.8 | 6.4 | 0.00 | 0.00 | 0.00 | 98 | 1016.2 |
| 20260508042447 | 7 | 333 | 4.8 | 4.8 | 0.00 | 0.00 | 0.00 | 98 | 1016.3 |
| 20260508041944 | 7 | 331 | 3.2 | 6.4 | 0.00 | 0.00 | 0.00 | 98 | 1016.1 |
| 20260508041440 | 8 | 327 | 4.8 | 6.4 | 0.00 | 0.00 | 0.00 | 98 | 1015.8 |
| 20260508040937 | 8 | 337 | 4.8 | 4.8 | 0.00 | 0.00 | 0.00 | 97 | 1015.9 |
| 20260508040434 | 8 | 337 | 3.2 | 4.8 | 0.00 | 0.00 | 0.00 | 97 | 1015.9 |
| 20260508035932 | 8 | 320 | 4.8 | 4.8 | 0.00 | 1.19 | 1.19 | 97 | 1016.1 |
| 20260508035428 | 8 | 310 | 4.8 | 8.0 | 0.00 | 1.19 | 1.19 | 97 | 1016.2 |
| 20260508034925 | 8 | 333 | 6.4 | 8.0 | 0.00 | 1.19 | 1.19 | 97 | 1016.3 |
| 20260508034423 | 8 | 355 | 3.2 | 4.8 | 0.00 | 1.19 | 1.19 | 97 | 1015.9 |
| 20260508033919 | 8 | 0 | 0.0 | 6.4 | 0.00 | 1.19 | 1.19 | 97 | 1016.1 |
| 20260508033418 | 8 | 355 | 4.8 | 6.4 | 0.00 | 1.19 | 1.19 | 97 | 1015.8 |
| 20260508032915 | 8 | 20 | 0.0 | 6.4 | 0.00 | 1.19 | 1.19 | 96 | 1016.2 |
| 20260508032412 | 8 | 325 | 4.8 | 4.8 | 0.00 | 1.19 | 1.19 | 96 | 1015.9 |
| 20260508031908 | 8 | 328 | 4.8 | 4.8 | 0.00 | 1.19 | 1.19 | 96 | 1016.2 |
| 20260508031406 | 8 | 355 | 4.8 | 6.4 | 0.00 | 1.19 | 1.19 | 96 | 1016.1 |
| 20260508030901 | 8 | 341 | 4.8 | 8.0 | 0.00 | 1.19 | 1.19 | 96 | 1016.2 |
| 20260508030359 | 8 | 351 | 3.2 | 8.0 | 0.00 | 1.19 | 1.19 | 95 | 1015.9 |
| 20260508025856 | 8 | 334 | 6.4 | 8.0 | 0.00 | 1.19 | 1.19 | 95 | 1016.3 |
| 20260508025347 | 8 | 344 | 4.8 | 8.0 | 0.00 | 1.19 | 1.19 | 95 | 1015.9 |
| 20260508024844 | 9 | 325 | 4.8 | 6.4 | 0.00 | 1.19 | 1.19 | 95 | 1016.1 |
| 20260508024340 | 9 | 310 | 0.0 | 4.8 | 0.00 | 1.19 | 1.19 | 95 | 1015.9 |
| 20260508023837 | 9 | 321 | 4.8 | 6.4 | 0.00 | 1.19 | 1.19 | 95 | 1015.9 |
| 20260508023334 | 9 | 337 | 3.2 | 6.4 | 0.00 | 1.19 | 1.19 | 94 | 1015.8 |
| 20260508022831 | 9 | 333 | 3.2 | 4.8 | 0.00 | 1.19 | 1.19 | 93 | 1015.8 |
| 20260508022327 | 9 | 341 | 0.0 | 8.0 | 0.00 | 1.19 | 1.19 | 93 | 1015.9 |
| 20260508021824 | 9 | 326 | 4.8 | 4.8 | 0.00 | 1.19 | 1.19 | 93 | 1015.8 |
| 20260508021319 | 9 | 301 | 4.8 | 4.8 | 0.00 | 1.19 | 1.19 | 93 | 1015.9 |
| 20260508020816 | 9 | 354 | 4.8 | 6.4 | 0.00 | 1.19 | 1.19 | 93 | 1015.8 |
| 20260508020314 | 10 | 349 | 0.0 | 6.4 | 0.00 | 1.19 | 1.19 | 92 | 1015.5 |
| 20260508015810 | 10 | 344 | 3.2 | 4.8 | 0.00 | 1.19 | 1.19 | 91 | 1015.7 |
| 20260508015308 | 10 | 337 | 4.8 | 6.4 | 0.00 | 1.19 | 1.19 | 91 | 1015.4 |
| 20260508014804 | 10 | 335 | 3.2 | 8.0 | 0.00 | 1.19 | 1.19 | 90 | 1015.5 |
| 20260508014301 | 10 | 326 | 3.2 | 4.8 | 0.00 | 1.19 | 1.19 | 89 | 1015.3 |
| 20260508013757 | 10 | 317 | 0.0 | 3.2 | 0.00 | 1.19 | 1.19 | 89 | 1015.2 |
| 20260508013253 | 10 | 25 | 0.0 | 4.8 | 0.00 | 1.19 | 1.19 | 88 | 1015.2 |
| 20260508012751 | 10 | 6 | 0.0 | 4.8 | 0.00 | 1.19 | 1.19 | 88 | 1015.3 |
| 20260508012248 | 10 | 322 | 3.2 | 3.2 | 0.00 | 1.19 | 1.19 | 87 | 1015.2 |
| 20260508011746 | 11 | 319 | 4.8 | 6.4 | 0.00 | 1.19 | 1.19 | 86 | 1015.0 |
| 20260508011243 | 11 | 2 | 0.0 | 3.2 | 0.00 | 1.19 | 1.19 | 84 | 1015.0 |
| 20260508010740 | 11 | 21 | 0.0 | 4.8 | 0.00 | 1.19 | 1.19 | 84 | 1015.0 |
| 20260508010238 | 11 | 19 | 0.0 | 4.8 | 0.00 | 1.19 | 1.19 | 83 | 1015.1 |
| 20260508005735 | 11 | 330 | 4.8 | 6.4 | 0.00 | 1.19 | 1.19 | 83 | 1015.2 |
| 20260508005232 | 11 | 332 | 6.4 | 8.0 | 0.00 | 1.19 | 1.19 | 81 | 1014.8 |
| 20260508004727 | 12 | 316 | 8.0 | 8.0 | 0.00 | 1.19 | 1.19 | 78 | 1014.6 |
| 20260508004224 | 12 | 52 | 0.0 | 0.0 | 0.00 | 1.19 | 1.19 | 77 | 1014.9 |
| 20260508003720 | 12 | 25 | 0.0 | 4.8 | 0.00 | 1.19 | 1.19 | 76 | 1014.7 |
| 20260508003218 | 12 | 115 | 3.2 | 4.8 | 0.00 | 1.19 | 1.19 | 78 | 1014.8 |
| 20260508002714 | 12 | 224 | 3.2 | 6.4 | 0.00 | 1.19 | 1.19 | 76 | 1014.7 |
| 20260508002212 | 12 | 359 | 6.4 | 14.5 | 0.00 | 1.19 | 1.19 | 70 | 1014.5 |
| 20260508001707 | 12 | 312 | 4.8 | 8.0 | 0.00 | 1.19 | 1.19 | 73 | 1014.2 |
| 20260508001203 | 13 | 353 | 0.0 | 4.8 | 0.00 | 1.19 | 1.19 | 76 | 1014.4 |
| 20260508000659 | 13 | 315 | 0.0 | 4.8 | 0.00 | 1.19 | 1.19 | 70 | 1014.4 |
| 20260508000157 | 13 | 183 | 0.0 | 3.2 | 0.00 | 1.19 | 1.19 | 73 | 1014.2 |
| 20260507235653 | 13 | 22 | 4.8 | 6.4 | 0.00 | 1.19 | 1.19 | 71 | 1014.2 |
| 20260507235150 | 13 | 110 | 4.8 | 4.8 | 0.00 | 1.19 | 1.19 | 67 | 1014.2 |
| 20260507234647 | 13 | 35 | 4.8 | 8.0 | 0.00 | 1.19 | 1.19 | 68 | 1014.1 |
| 20260507234143 | 13 | 21 | 4.8 | 8.0 | 0.00 | 1.19 | 1.19 | 73 | 1013.9 |
| 20260507233641 | 14 | 175 | 3.2 | 8.0 | 0.00 | 1.19 | 1.19 | 69 | 1013.7 |
| 20260507233139 | 14 | 341 | 4.8 | 9.7 | 0.00 | 1.19 | 1.19 | 65 | 1013.8 |
| 20260507232635 | 14 | 40 | 0.0 | 8.0 | 0.00 | 1.19 | 1.19 | 64 | 1013.8 |
| 20260507232132 | 14 | 37 | 6.4 | 12.9 | 0.00 | 1.19 | 1.19 | 65 | 1013.7 |
| 20260507231629 | 14 | 23 | 4.8 | 14.5 | 0.00 | 1.19 | 1.19 | 65 | 1013.8 |
| 20260507231126 | 14 | 39 | 3.2 | 9.7 | 0.00 | 1.19 | 1.19 | 67 | 1013.9 |
| 20260507230622 | 14 | 88 | 6.4 | 8.0 | 0.00 | 1.19 | 1.19 | 68 | 1013.9 |
| 20260507230120 | 15 | 42 | 4.8 | 6.4 | 0.00 | 1.19 | 1.19 | 70 | 1013.9 |
| 20260507225614 | 15 | 42 | 11.3 | 14.5 | 0.00 | 1.19 | 1.19 | 68 | 1013.8 |
| 20260507225111 | 15 | 70 | 0.0 | 6.4 | 0.00 | 1.19 | 1.19 | 66 | 1013.8 |
| 20260507224607 | 15 | 52 | 8.0 | 16.1 | 0.00 | 1.19 | 1.19 | 69 | 1014.0 |
| 20260507224104 | 15 | 22 | 6.4 | 11.3 | 0.00 | 1.19 | 1.19 | 64 | 1013.8 |
| 20260507223559 | 15 | 145 | 8.0 | 14.5 | 0.00 | 1.19 | 1.19 | 65 | 1013.8 |
| 20260507223056 | 15 | 75 | 17.7 | 17.7 | 0.00 | 1.19 | 1.19 | 67 | 1014.0 |
| 20260507222554 | 14 | 22 | 4.8 | 17.7 | 0.00 | 1.19 | 1.19 | 66 | 1013.9 |
| 20260507222050 | 15 | 109 | 0.0 | 8.0 | 0.00 | 1.19 | 1.19 | 70 | 1013.9 |
| 20260507221547 | 15 | 50 | 3.2 | 16.1 | 0.00 | 1.19 | 1.19 | 71 | 1014.0 |
| 20260507221044 | 15 | 88 | 12.9 | 25.7 | 0.00 | 1.19 | 1.19 | 65 | 1013.6 |
| 20260507220541 | 15 | 31 | 11.3 | 11.3 | 0.00 | 1.19 | 1.19 | 69 | 1013.7 |
| 20260507220038 | 15 | 75 | 16.1 | 16.1 | 0.00 | 1.19 | 1.19 | 67 | 1013.6 |
| 20260507215534 | 15 | 81 | 4.8 | 16.1 | 0.00 | 1.19 | 1.19 | 67 | 1013.5 |
| 20260507215032 | 15 | 316 | 8.0 | 32.2 | 0.00 | 1.19 | 1.19 | 66 | 1013.4 |